Location: Newcastle
(43.9170°N, 78.5830°W)
Time: 00:33:45
(UTC-05:00)

ISS - Visible Passes

Search period start: 11 December 2017 00:00
Search period end: 21 December 2017 00:00
Orbit: 402 x 407 km, 51.6° (Epoch: 11 December)

Date Brightness Start Highest point End Pass type
(mag) Time Alt. Az. Time Alt. Az. Time Alt. Az.
11 Dec -3.3 18:23:38 10° NW 18:26:30 46° N 18:26:30 46° N visible
12 Dec -3.0 17:31:27 10° NW 17:34:30 34° NNE 17:36:44 16° E visible
12 Dec -1.4 19:07:53 10° WNW 19:09:25 23° W 19:09:25 23° W visible
13 Dec -3.9 18:15:33 10° WNW 18:18:51 83° SSW 18:19:50 42° SE visible
14 Dec -3.7 17:23:17 10° NW 17:26:34 58° NNE 17:29:48 10° ESE visible
14 Dec -1.4 19:00:17 10° W 19:02:47 20° SW 19:03:14 20° SSW visible
15 Dec -2.3 18:07:36 10° WNW 18:10:39 36° SW 18:13:41 10° SSE visible
16 Dec -3.4 17:15:10 10° WNW 17:18:26 67° SW 17:21:42 10° SE visible
17 Dec -0.7 18:00:06 10° W 18:02:16 17° SW 18:04:26 10° S visible
18 Dec -1.5 17:07:13 10° WNW 17:10:08 29° SW 17:13:02 10° SSE visible
